Flag for U.S.A. Weather past 2 weeks in Portsmouth, Virginia, U.S.A.

Now
66 °F

Fog.


Feels Like: 66 °F
Forecast: 57 / 74 °F
Wind: 10 mph from East

Location: Norfolk Naval Air Station

Current Time: Apr 19, 2015 at 5:42:23 PM

Latest Report: Apr 19, 2015 at 4:59 PM


Visibility: 6 mi

Pressure: 30.00 "Hg

Humidity: 75%

Dew point: 58 °F

Location of PortsmouthLocation

Historic Weather in Portsmouth — Graph

°F

Portsmouth temperature yesterday

Maximum temperature yesterday: 76 °F (at 2:59 PM)
Minimum temperature yesterday: 64 °F (at 11:59 PM)
Average temperature yesterday: 69 °F

Past Weeks' High & Low Weather Summary

 TemperatureHumidityPressure
High87 °F (Apr 10, 2:59 PM)90% (Apr 9, 9:59 AM)30.41 "Hg (Apr 9, 9:59 AM)
Low41 °F (Apr 5, 5:59 AM)20% (Apr 4, 5:59 PM)29.83 "Hg (Apr 10, 7:59 PM)
Average64 °F62%30.18 "Hg
* Reported Apr 4 3:59 PM — Apr 19 3:59 PM, Portsmouth, Weather by CustomWeather, © 2015

Note: Actual official high and low records may vary slightly from our data, if they occured in-between our weather recording intervals... More about our weather records

Advertising

Portsmouth weather history for previous 24 hours

 ConditionsComfort  
Time TempWeatherWind HumidityBarometerVisibility
3:59 PM
Sun, Apr 19
64 °FLight rain. Cloudy.12 mph81%30.02 "Hg5 mi
2:59 PM66 °FMostly cloudy.16 mph70%30.04 "Hg6 mi
1:59 PM68 °FPartly sunny.18 mph68%30.07 "Hg7 mi
12:59 PM69 °FPartly sunny.14 mph63%30.09 "Hg9 mi
11:59 AM70 °FPartly sunny.14 mph57%30.11 "Hg10 mi
10:59 AM67 °FBroken clouds.13 mph61%30.12 "Hg9 mi
9:59 AM66 °FBroken clouds.14 mph63%30.11 "Hg8 mi
8:59 AM66 °FScattered clouds.15 mph65%30.10 "Hg7 mi
7:59 AM64 °FScattered clouds.12 mph78%30.10 "Hg6 mi
6:59 AM62 °FFog.14 mph83%30.09 "Hg5 mi
5:59 AM59 °FFog.3 mph84%30.03 "Hg3 mi
4:59 AM61 °FFog.No wind83%30.03 "Hg4 mi
3:59 AM61 °FFog.No wind83%30.02 "Hg5 mi
2:59 AM62 °FFog.No wind80%30.02 "Hg6 mi
1:59 AM62 °FFog.No wind83%30.03 "Hg6 mi
12:59 AM62 °FPassing clouds.No wind83%30.03 "Hg7 mi
11:59 PM
Sat, Apr 18
64 °FPassing clouds.No wind81%30.04 "Hg7 mi
10:59 PM66 °FPassing clouds.No wind78%30.03 "Hg9 mi
9:59 PM66 °FPassing clouds.3 mph78%30.03 "Hg10 mi
8:59 PM68 °FPassing clouds.5 mph73%30.02 "Hg10 mi
7:59 PM67 °FPartly sunny.5 mph76%29.99 "Hg10 mi
6:59 PM68 °FSunny.9 mph73%29.98 "Hg10 mi
5:59 PM70 °FPartly sunny.12 mph71%29.99 "Hg10 mi
Weather by CustomWeather, © 2015

See weather overviewHow to use our weather pages